カタログに戻る

STARLINK-31467

運用中通信VLEO
NORAD 59235·PAYLOAD·🇺🇸 United States

打ち上げ Mar 16, 2024 から Cape Canaveral Space Force Station

Loading…

次のパス (今後24時間)

TLE

最新Source: CelesTrak SupGP

元期: Sep 14, 2026, 20:51 UTC

1 59235C 24049E   26257.86923611 -.00017879  00000+0 -64768-3 0  2575
2 59235  43.0019 155.1242 0001431 267.1077 285.9141 15.27581841    15

AllMySatでSTARLINK-31467をリアルタイム追跡

Download on the App Store